Regional Weather Roundup
Issued by NWS

Home | Current Version | Previous Version | Graphics & Text | Print | Product List | Glossary On
Versions: 1 2 3 4 5 6 7 8 9 10 11 12 13 14 15 16 17 18 19 20 21 22 23 24 25 26 27 28 29 30 31 32 33 34 35 36 37 38 39 40 41 42 43 44 45 46 47 48 49 50
000
ASUS43 KDTX 121410
RWRMI
MICHIGAN HOURLY REGIONAL WEATHER ROUNDUP
NATIONAL WEATHER SERVICE DETROIT/PONTIAC MI
1000 AM EDT SAT JUL 12 2014

NOTE: "FAIR" INDICATES FEW OR NO CLOUDS BELOW 12,000 FEET WITH NO
SIGNIFICANT WEATHER AND/OR OBSTRUCTION TO VISIBILITY.

MIZ047>049-052>055-059>063-066>070-074>076-081>083-121500-
SOUTHEAST LOWER MICHIGAN

CITY           SKY/WX    TMP DP  RH WIND       PRES   REMARKS
ADRIAN         SUNNY     76  61  59 SW5       30.15S
ALMA           SUNNY     73  62  68 S6        30.11F
ANN ARBOR      SUNNY     76  61  59 S7        30.14F
BAD AXE        SUNNY     75  60  61 SW7       30.13S
DETROIT CITY   SUNNY     80  60  50 S9        30.15R
DETROIT        MOSUNNY   77  59  53 SW9       30.15S
FLINT          PTSUNNY   76  61  59 S6        30.13S
GROSSE ILE     SUNNY     79  64  61 S3        30.14R
HILLSDALE      SUNNY     76  63  65 S6        30.15S
HOWELL         MOSUNNY   75  61  61 S6        30.14S

CITY           SKY/WX    TMP DP  RH WIND       PRES   REMARKS
JACKSON        SUNNY     76  61  59 S9        30.13F
LAMBERTVILLE   SUNNY     79  59  50 S5        30.15S
LANSING        SUNNY     76  60  57 S7        30.12F
LAPEER         NOT AVBL
MASON          SUNNY     75  62  64 S5        30.13S
MONROE         SUNNY     79  59  50 SW7       30.13S
PONTIAC        PTSUNNY   74  59  59 S6        30.14F
PORT HOPE        N/A     76  62  62 VRB6      30.10S
PORT HURON     MOSUNNY   75  66  73 S9        30.15S
TRI CITIES     MOSUNNY   75  62  64 S6        30.12S
YPSILANTI      SUNNY     80  61  52 S7        30.15S
$$
MIZ043>046-050>051-056>058-064>065-071>073-077>080-121500-
SOUTHWEST LOWER MICHIGAN

CITY           SKY/WX    TMP DP  RH WIND       PRES   REMARKS
BATTLE CREEK   SUNNY     76  62  62 S13       30.13R
BENTON HARBOR  CLOUDY    73  63  70 S7        30.08S
BIG RAPIDS     MOSUNNY   74  61  63 SW6       30.09S
COLDWATER      MOSUNNY   76  64  64 SW6       30.13R
HOLLAND        CLOUDY    75  64  68 S7        30.09S
GRAND RAPIDS   PTSUNNY   77  63  61 S12       30.10R
KALAMAZOO      MOSUNNY   77  63  61 S9        30.12R
MARSHALL       SUNNY     75  62  64 S6        30.12R
MUSKEGON       CLOUDY    76  62  62 SE7       30.07S
$$
MIZ016>042-121500-
NORTHERN LOWER MICHIGAN

CITY           SKY/WX    TMP DP  RH WIND       PRES   REMARKS
ALPENA         CLOUDY    71  57  61 SW8       30.07S
BEAVER ISLAND  CLOUDY    65  62  89 SW9G17    30.03S
BELLAIRE       CLOUDY    72  58  61 S6        30.04F
CADILLAC       MOSUNNY   74  62  66 S6        30.07F
CHARLEVOIX     PTSUNNY   69  61  76 S6        30.06F
FRANKFORT      PTSUNNY   73  59  61 SW8       30.05R
GAYLORD        CLOUDY    67  57  70 SW7       30.08S
GRAYLING       PTSUNNY   73  58  58 SW8       30.09S
HARBOR SPRINGS CLOUDY    69  60  74 CALM      30.03S
HOUGHTON LAKE  SUNNY     73  59  61 SW8       30.10F
MANISTEE       CLOUDY    70  61  73 S3        30.07R
OSCODA         PTSUNNY   77  60  55 SW12      30.09F
PELLSTON       CLOUDY    70  58  65 MISG      30.04S
TRAVERSE CITY  CLOUDY    76  60  57 S3        30.03S
$$
MIZ007>008-015-121500-
EASTERN UPPER MICHIGAN

CITY           SKY/WX    TMP DP  RH WIND       PRES   REMARKS
KINROSS        PTSUNNY   70  59  68 SW8       30.02F
MACKINAC ISLAN CLOUDY    66  58  73 W7        30.03S
NEWBERRY       SUNNY     69  61  75 SW7       30.00R
S. S. MARIE    CLOUDY    67  58  72 SW6       30.01S
$$
MIZ004>006-011>014-085-121500-
CENTRAL UPPER MICHIGAN

CITY           SKY/WX    TMP DP  RH WIND       PRES   REMARKS
MANISTIQUE     MOSUNNY   65  58  80 S5        30.00S
ESCANABA       MOSUNNY   73  63  68 W7        29.99F
MENOMINEE      PTSUNNY   70  63  78 SW3       30.00S
SAWYER-GWINN   CLOUDY    70  64  83 W5        30.00F
$$
MIZ001>003-009>011-084-121500-
WESTERN UPPER MICHIGAN

CITY           SKY/WX    TMP DP  RH WIND       PRES   REMARKS
IRON MOUNTAIN  PTSUNNY   73  66  78 W8        29.99F
HOUGHTON       PTSUNNY   66  62  87 W13       29.97S
COPPER HARBOR    N/A     62  57  83 N9        29.95R
IRONWOOD       PTSUNNY   70  63  78 NW6       29.98F
$$

ABBREVIATIONS USED IN REMARKS
   TC - TEMPERATURE IN CELSIUS
  WCI - WIND CHILL INDEX
   HX - HEAT INDEX
  VSB - VISIBILITY



USA.gov is the U.S. government's official web portal to all federal, state and local government web resources and services.